[[{"header":{"parameterUnit":"m.s-1","parameterCategory":2,"la1":30.2991,"la2":30.254,"lo1":-89.0895,"lo2":-89.0444,"dy":0.0017,"dx":0.0017,"nx":28,"ny":28,"refTime":"2023-08-20T21:00:00:Z","depth":"0","parameterNumber":2,"parameterNumberName":"U-component_of_CURRENTS"},"data":[0,0,0,0,0,0,0,0,0,0,0,0,0,0,0,0,0,0,0,0,0,0,0,0,0,0,0,0,0,0,0,0,0,0,0,0,0,0,0,0,0,0,0,0,0,0,0,0,0,0,0,0,0,0,0,0,0,0,0.2729,0.2729,0,0.2619,0.2617,0.2615,0.2508,0.2507,0.2507,0.2506,0.2268,0.2262,0.2256,0,0,0,0,0,0,0,0,0,0,0,0,0,0.2734,0.2734,0.2729,0.2729,0.2728,0.262,0.2617,0.2615,0.2508,0.2507,0.2507,0.2506,0.227,0.2263,0.2256,0,0,0,0,0,0,0,0,0,0,0,0,0,0.2679,0.2734,0.2729,0.267,0.2664,0.262,0.2617,0.2614,0.2508,0.2507,0.2507,0.2506,0.2272,0.2263,0.2255,0.2211,0,0,0.2227,0.2223,0,0,0,0,0,0,0,0,0.2682,0.2677,0.2679,0.2674,0.2668,0.2586,0.2532,0.2476,0.2508,0.2556,0.2506,0.2506,0.237,0.2353,0.232,0.22,0.2189,0.2226,0.2221,0.2217,0.2214,0,0,0,0,0,0,0,0.2686,0.2681,0.2674,0.2679,0.2672,0.2612,0.2603,0.252,0.2456,0.2551,0.2546,0.2552,0.2364,0.2329,0.2313,0.2186,0.2227,0.2219,0.2213,0.221,0.1992,0.1991,0,0,0,0,0,0,0.2729,0.2685,0.2678,0.2672,0.2686,0.2613,0.2603,0.2604,0.246,0.2442,0.2552,0.2547,0.2344,0.2324,0.2304,0.2252,0.2217,0.2209,0.2204,0.1992,0.1992,0.1991,0,0,0,0,0,0,0.2729,0.2729,0.2683,0.2685,0.2676,0.2616,0.2617,0.2602,0.2572,0.2464,0.2441,0.2539,0.2343,0.2317,0.2207,0.2241,0.2205,0.2196,0.1993,0.1992,0.1991,0.2141,0,0,0,0,0,0,0.273,0.2729,0.2734,0.2688,0.2678,0.2659,0.2618,0.2601,0.2582,0.2574,0.2445,0.2422,0.2341,0.2221,0.2198,0.2228,0.2189,0.1993,0.1992,0.1992,0.2137,0.2146,0.2153,0,0,0,0,0,0.273,0.2731,0.2735,0.2734,0.269,0.2661,0.2648,0.2595,0.2583,0.2565,0.2463,0.2426,0.2201,0.2212,0.2186,0.2215,0.1993,0.1993,0.1992,0.2133,0.2144,0.2153,0,0,0,0,0,0,0.2716,0.2721,0.2723,0.2721,0.2704,0.2647,0.2631,0.2609,0.2518,0.2507,0.24,0.2368,0.2281,0.222,0.2235,0.2147,0.21,0.2094,0.2217,0.2226,0.2234,0.2308,0.2182,0,0,0,0,0,0.2729,0.2738,0.2729,0.2727,0.2728,0.2688,0.267,0.2644,0.2573,0.2534,0.2453,0.2357,0.2257,0.222,0.2115,0.207,0.2079,0.2075,0.2084,0.2092,0.2131,0.2156,0.2173,0.1988,0.1988,0.1988,0,0,0.2723,0.2729,0.2732,0.2727,0.2708,0.2705,0.2671,0.2656,0.265,0.2521,0.2469,0.2366,0.224,0.2172,0.2135,0.2132,0.215,0.2091,0.2099,0.2134,0.2157,0.2176,0.2193,0.1988,0.1988,0.1988,0,0,0.2715,0.2728,0.2735,0.2731,0.2731,0.2717,0.2726,0.2689,0.2669,0.2612,0.2511,0.2432,0.2303,0.2227,0.2169,0.2164,0.2172,0.2143,0.2274,0.2297,0.2315,0.233,0.2392,0.2411,0.2176,0.2176,0.2176,0,0.2708,0.2721,0.2726,0.2732,0.2732,0.2734,0.2733,0.2722,0.2653,0.264,0.2613,0.2443,0.2333,0.2265,0.2266,0.2189,0.2229,0.2251,0.2317,0.2332,0.2345,0.2404,0.2424,0.2183,0.2183,0.2182,0.2181,0,0.2704,0.2719,0.2722,0.2743,0.2738,0.2743,0.275,0.2743,0.2737,0.2727,0.2673,0.2548,0.2459,0.2421,0.2341,0.2376,0.2383,0.2309,0.2312,0.2374,0.243,0.2449,0.2193,0.2191,0.2189,0.2187,0,0,0.2671,0.2716,0.2714,0.2726,0.275,0.2739,0.2758,0.2766,0.2775,0.2765,0.277,0.2651,0.2639,0.2574,0.2489,0.2533,0.2647,0.25,0.2498,0.2602,0.2766,0.2734,0.275,0.2613,0.2616,0.2618,0.2779,0,0.2665,0.2684,0.2706,0.2718,0.2728,0.2744,0.2754,0.2766,0.2775,0.2784,0.2764,0.2711,0.2688,0.2641,0.2698,0.2616,0.27,0.2614,0.2656,0.2658,0.2654,0.277,0.2678,0.2811,0.2797,0.28,0.2802,0,0.2642,0.2665,0.2679,0.271,0.2714,0.2721,0.2735,0.275,0.2789,0.2796,0.2829,0.2805,0.2843,0.28,0.2874,0.2837,0.2845,0.2828,0.2831,0.2769,0.266,0.2735,0.2844,0.2787,0.2829,0.2827,0.2825,0,0.2597,0.2635,0.2649,0.2659,0.2699,0.2698,0.2718,0.2747,0.2756,0.2813,0.2836,0.2895,0.2898,0.296,0.2968,0.2931,0.307,0.2975,0.2982,0.298,0.2892,0.2876,0.2981,0.3073,0.3073,0.3073,0.3072,0,0.2575,0.2575,0.263,0.2636,0.263,0.2674,0.2674,0.2699,0.2748,0.2774,0.2855,0.2889,0.2948,0.3023,0.3041,0.3107,0.3138,0.3061,0.3033,0.2939,0.2926,0.2857,0.2805,0.3079,0.3077,0.3076,0.3075,0,0.25,0.2552,0.2553,0.26,0.2606,0.2595,0.2627,0.2631,0.2716,0.2754,0.2778,0.2903,0.301,0.3091,0.3155,0.317,0.3135,0.3222,0.3137,0.3096,0.3007,0.2966,0.2928,0.2837,0.3263,0.3263,0.3264,0,0.2458,0.2462,0.2493,0.2481,0.2496,0.2501,0.2495,0.2577,0.2598,0.2752,0.277,0.2912,0.3005,0.3166,0.3195,0.3283,0.3156,0.3225,0.3106,0.3054,0.2987,0.2839,0.2753,0.3064,0.3062,0.3061,0.306,0,0.2369,0.2384,0.2388,0.2367,0.236,0.2359,0.2385,0.2405,0.2522,0.2599,0.274,0.2843,0.3032,0.3088,0.3203,0.3221,0.3071,0.3201,0.3159,0.2883,0.2717,0.2595,0.2934,0.305,0.3051,0.3052,0.3053,0.3053,0.2275,0.225,0.2261,0.2224,0.2222,0.2226,0.221,0.2284,0.2344,0.2462,0.2622,0.2761,0.293,0.3083,0.3098,0.3074,0.3007,0.2984,0.296,0.2833,0.2675,0.3024,0.3078,0.3079,0.308,0.3081,0.3082,0,0.2146,0.2143,0.2113,0.2088,0.205,0.2096,0.2127,0.2124,0.2185,0.2332,0.2456,0.2651,0.2743,0.2865,0.2953,0.2876,0.2713,0.2785,0.2567,0.2507,0.2852,0.2773,0.2747,0.2747,0.2747,0.2747,0.2747,0.2747,0.2081,0.2024,0.2016,0.1927,0.1914,0.1868,0.188,0.1914,0.1999,0.2117,0.2237,0.2371,0.2639,0.2795,0.2794,0.2718,0.2506,0.2386,0.2357,0.2626,0.2641,0.2656,0.2573,0.2505,0.2505,0.1907,0.1903,0.19]},{"header":{"parameterUnit":"m.s-1","parameterCategory":2,"la1":30.2991,"la2":30.254,"lo1":-89.0895,"lo2":-89.0444,"dy":0.0017,"dx":0.0017,"nx":28,"ny":28,"refTime":"2023-08-20T21:00:00:Z","depth":"0","parameterNumber":3,"parameterNumberName":"V-component_of_CURRENTS"},"data":[0,0,0,0,0,0,0,0,0,0,0,0,0,0,0,0,0,0,0,0,0,0,0,0,0,0,0,0,0,0,0,0,0,0,0,0,0,0,0,0,0,0,0,0,0,0,0,0,0,0,0,0,0,0,0,0,0,0,-0.0366,-0.0367,0,-0.0554,-0.0556,-0.0559,-0.067,-0.067,-0.067,-0.067,-0.0841,-0.0846,-0.085,0,0,0,0,0,0,0,0,0,0,0,0,0,-0.0215,-0.0217,-0.0365,-0.0367,-0.0369,-0.0553,-0.0556,-0.056,-0.067,-0.067,-0.067,-0.067,-0.084,-0.0845,-0.0851,0,0,0,0,0,0,0,0,0,0,0,0,0,-0.0335,-0.0218,-0.0365,-0.0442,-0.045,-0.0553,-0.0557,-0.0561,-0.067,-0.067,-0.067,-0.067,-0.0838,-0.0845,-0.0852,-0.0897,0,0,-0.0873,-0.0876,0,0,0,0,0,0,0,0,-0.0328,-0.0341,-0.0429,-0.0437,-0.0446,-0.0583,-0.0566,-0.067,-0.067,-0.0593,-0.067,-0.067,-0.0749,-0.0764,-0.0808,-0.0905,-0.0913,-0.0874,-0.0878,-0.0881,-0.0883,0,0,0,0,0,0,0,-0.0319,-0.0334,-0.0446,-0.0431,-0.0441,-0.0505,-0.0522,-0.0587,-0.0674,-0.06,-0.0607,-0.0618,-0.0755,-0.0802,-0.0813,-0.0915,-0.0873,-0.0879,-0.0884,-0.0887,-0.1093,-0.1094,0,0,0,0,0,0,-0.0278,-0.0326,-0.044,-0.0451,-0.0378,-0.0507,-0.0526,-0.0544,-0.0674,-0.0692,-0.0618,-0.0622,-0.079,-0.0805,-0.0819,-0.0894,-0.0881,-0.0887,-0.0891,-0.1092,-0.1093,-0.1095,0,0,0,0,0,0,-0.0274,-0.0287,-0.0433,-0.0388,-0.041,-0.0508,-0.0529,-0.0548,-0.0591,-0.0687,-0.0706,-0.064,-0.079,-0.081,-0.089,-0.0901,-0.089,-0.0897,-0.109,-0.1092,-0.1094,-0.1035,0,0,0,0,0,0,-0.0269,-0.0285,-0.0287,-0.0385,-0.041,-0.0481,-0.0529,-0.0551,-0.0595,-0.0603,-0.0712,-0.0728,-0.0792,-0.088,-0.0897,-0.091,-0.0902,-0.1089,-0.1091,-0.1094,-0.1035,-0.1035,-0.1034,0,0,0,0,0,-0.0264,-0.0262,-0.0286,-0.03,-0.041,-0.048,-0.05,-0.0574,-0.0596,-0.0614,-0.0699,-0.0725,-0.0907,-0.0887,-0.0907,-0.0922,-0.1087,-0.109,-0.1093,-0.1036,-0.1035,-0.1034,0,0,0,0,0,0,-0.0197,-0.0276,-0.0304,-0.0327,-0.0391,-0.0496,-0.0513,-0.0565,-0.065,-0.0651,-0.0747,-0.077,-0.0842,-0.0894,-0.0868,-0.0991,-0.1,-0.1007,-0.0949,-0.0949,-0.0949,-0.0876,-0.0908,0,0,0,0,0,-0.018,-0.0202,-0.0285,-0.0302,-0.0323,-0.0416,-0.0453,-0.0502,-0.0584,-0.0621,-0.0707,-0.0793,-0.0873,-0.0917,-0.0991,-0.1059,-0.1053,-0.1083,-0.1082,-0.1081,-0.1039,-0.1075,-0.1072,-0.1105,-0.1105,-0.1105,0,0,-0.016,-0.0202,-0.0217,-0.0289,-0.0341,-0.0369,-0.044,-0.0481,-0.0515,-0.0624,-0.0699,-0.0789,-0.089,-0.0971,-0.1008,-0.1015,-0.1065,-0.1085,-0.1083,-0.104,-0.1077,-0.1074,-0.107,-0.1107,-0.1106,-0.1106,0,0,-0.0121,-0.0161,-0.0164,-0.0206,-0.0267,-0.0326,-0.0329,-0.0433,-0.0486,-0.057,-0.0659,-0.075,-0.0878,-0.0959,-0.1012,-0.105,-0.1056,-0.1084,-0.1029,-0.1066,-0.1062,-0.1059,-0.1014,-0.1007,-0.1089,-0.1089,-0.1089,0,-0.0088,-0.0106,-0.0175,-0.0182,-0.0199,-0.0295,-0.0294,-0.0368,-0.0493,-0.052,-0.0575,-0.0768,-0.0866,-0.0953,-0.0984,-0.1044,-0.1037,-0.1021,-0.106,-0.1057,-0.1054,-0.1009,-0.1002,-0.1087,-0.1087,-0.1087,-0.1087,0,-0.0057,-0.0065,-0.0062,-0.0103,-0.0134,-0.0148,-0.0235,-0.0279,-0.0353,-0.0431,-0.0533,-0.0693,-0.0786,-0.0865,-0.0944,-0.099,-0.0978,-0.1047,-0.1047,-0.1046,-0.1,-0.0994,-0.1083,-0.1084,-0.1085,-0.1085,0,0,0.0006,-0.0033,-0.0029,-0.0023,-0.0086,-0.0105,-0.0137,-0.0195,-0.0194,-0.0351,-0.0368,-0.0574,-0.0644,-0.0709,-0.0835,-0.0906,-0.0905,-0.0965,-0.0968,-0.0889,-0.0917,-0.0857,-0.0844,-0.0986,-0.0985,-0.0985,-0.0878,0,0.0056,0.0073,0.0036,0.0058,0.0064,0.0002,-0.0013,-0.0072,-0.0146,-0.019,-0.0357,-0.0433,-0.059,-0.0637,-0.073,-0.086,-0.089,-0.0922,-0.0953,-0.0951,-0.0877,-0.0837,-0.0819,-0.0719,-0.0872,-0.0871,-0.087,0,0.0101,0.0109,0.0145,0.0156,0.0158,0.0159,0.016,0.013,0.0056,-0.0001,-0.0097,-0.0207,-0.0331,-0.047,-0.0638,-0.0649,-0.075,-0.0861,-0.0861,-0.0811,-0.0881,-0.0756,-0.0702,-0.0855,-0.086,-0.0861,-0.0862,0,0.0176,0.019,0.0227,0.0227,0.0218,0.0243,0.0238,0.0195,0.019,0.0133,0.0129,-0.0021,-0.009,-0.0256,-0.0471,-0.0544,-0.0624,-0.0751,-0.0775,-0.077,-0.0758,-0.0752,-0.0827,-0.0825,-0.0826,-0.0826,-0.0826,0,0.0238,0.0274,0.0272,0.0292,0.0361,0.0331,0.0391,0.0368,0.0353,0.0363,0.0235,0.0216,-0.0047,-0.0138,-0.0348,-0.0497,-0.0508,-0.0712,-0.0738,-0.0735,-0.0728,-0.0866,-0.0961,-0.0822,-0.0823,-0.0824,-0.0824,0,0.0308,0.0304,0.0354,0.0376,0.0394,0.0443,0.0482,0.0515,0.0498,0.052,0.0513,0.0418,0.0312,0.0097,-0.0133,-0.031,-0.0546,-0.053,-0.0456,-0.0477,-0.0666,-0.0758,-0.079,-0.0858,-0.0525,-0.0523,-0.0521,0,0.0344,0.0373,0.042,0.0458,0.0473,0.0535,0.0576,0.0578,0.0611,0.0626,0.0646,0.0599,0.0557,0.0323,0.0025,-0.0206,-0.043,-0.0342,-0.0509,-0.0618,-0.0742,-0.0822,-0.0886,-0.0457,-0.0455,-0.0453,-0.0452,0,0.0412,0.0426,0.0466,0.0538,0.0592,0.0656,0.0715,0.0768,0.0776,0.0824,0.0882,0.0879,0.068,0.0469,0.0187,-0.0022,-0.0425,-0.0312,-0.048,-0.0708,-0.0745,-0.0841,-0.0534,-0.0436,-0.0438,-0.0439,-0.044,-0.044,0.0467,0.0505,0.0548,0.0622,0.0685,0.0764,0.083,0.0905,0.1003,0.1081,0.1066,0.1101,0.081,0.0426,0.0165,-0.0267,-0.0325,-0.0458,-0.0553,-0.0617,-0.071,-0.0305,-0.0222,-0.0222,-0.0223,-0.0223,-0.0223,0,0.0522,0.0556,0.0622,0.0705,0.0777,0.0801,0.0912,0.099,0.1127,0.1219,0.1288,0.1201,0.0832,0.0426,-0.0145,-0.0469,-0.0646,-0.0649,-0.0811,-0.0866,-0.055,-0.0579,-0.0502,-0.0502,-0.0502,-0.0502,-0.0502,-0.0502,0.0552,0.0615,0.0641,0.0764,0.0825,0.0931,0.1002,0.1137,0.1241,0.1395,0.1454,0.1463,0.1192,0.0156,-0.0584,-0.0767,-0.1029,-0.1039,-0.1179,-0.1032,-0.1024,-0.1017,-0.107,-0.1097,-0.1098,-0.1479,-0.1483,-0.1486]}],[{"header":{"parameterUnit":"m.s-1","parameterCategory":2,"la1":30.2991,"la2":30.254,"lo1":-89.0895,"lo2":-89.0444,"dy":0.0017,"dx":0.0017,"nx":28,"ny":28,"refTime":"2023-08-20T21:00:00:Z","depth":"2","parameterNumber":2,"parameterNumberName":"U-component_of_CURRENTS"},"data":[0,0,0,0,0,0,0,0,0,0,0,0,0,0,0,0,0,0,0,0,0,0,0,0,0,0,0,0,0,0,0,0,0,0,0,0,0,0,0,0,0,0,0,0,0,0,0,0,0,0,0,0,0,0,0,0,0,0,0.2257,0.2257,0,0.2288,0.2288,0.2289,0.2291,0.2291,0.229,0.229,0.2404,0.2407,0.241,0,0,0,0,0,0,0,0,0,0,0,0,0,0.2206,0.2207,0.2257,0.2257,0.2258,0.2288,0.2288,0.2289,0.2291,0.2291,0.229,0.229,0.2403,0.2407,0.2411,0,0,0,0,0,0,0,0,0,0,0,0,0,0.2232,0.2207,0.2257,0.2263,0.2263,0.2288,0.2288,0.2289,0.2291,0.2291,0.229,0.229,0.2401,0.2406,0.2411,0.2453,0,0,0.2427,0.2429,0,0,0,0,0,0,0,0,0.223,0.2234,0.2261,0.2262,0.2263,0.2285,0.2312,0.2348,0.2291,0.2281,0.229,0.2289,0.2372,0.238,0.2385,0.2458,0.2463,0.2427,0.243,0.2432,0.2434,0,0,0,0,0,0,0,0.2229,0.2232,0.2269,0.2262,0.2263,0.2266,0.2269,0.2319,0.2331,0.2282,0.2282,0.2285,0.2373,0.238,0.2388,0.2464,0.2427,0.2431,0.2434,0.2436,0.2634,0.2636,0,0,0,0,0,0,0.2225,0.2231,0.2268,0.227,0.2245,0.2267,0.227,0.2279,0.2328,0.2335,0.2286,0.2285,0.2372,0.2382,0.2392,0.2498,0.2432,0.2437,0.244,0.2632,0.2635,0.2637,0,0,0,0,0,0,0.2224,0.2228,0.2267,0.2251,0.2256,0.2268,0.2278,0.228,0.2291,0.233,0.2338,0.2295,0.2372,0.2385,0.2445,0.2501,0.2439,0.2444,0.2629,0.2633,0.2636,0.2677,0,0,0,0,0,0,0.2223,0.2228,0.2231,0.2251,0.2257,0.2277,0.2278,0.2281,0.2293,0.2293,0.2342,0.2351,0.2373,0.2437,0.245,0.2507,0.2448,0.2627,0.2631,0.2635,0.2672,0.2681,0.2688,0,0,0,0,0,0.2221,0.2222,0.2231,0.2235,0.2261,0.2277,0.228,0.2287,0.2294,0.2296,0.2338,0.235,0.2473,0.2443,0.2457,0.2517,0.2625,0.263,0.2635,0.2669,0.2679,0.2688,0,0,0,0,0,0,0.2198,0.2223,0.2233,0.2242,0.2258,0.2277,0.2281,0.2293,0.2326,0.2333,0.2371,0.2384,0.2473,0.2481,0.2446,0.2587,0.2555,0.2563,0.2576,0.2586,0.2594,0.2505,0.2452,0,0,0,0,0,0.2197,0.221,0.223,0.224,0.2247,0.2269,0.2277,0.2285,0.2317,0.2329,0.2368,0.2424,0.2506,0.2529,0.2594,0.2652,0.2624,0.2703,0.2711,0.2717,0.2656,0.2708,0.2714,0.2654,0.2654,0.2654,0,0,0.2188,0.2209,0.2213,0.2238,0.2252,0.2266,0.2272,0.2287,0.2303,0.2341,0.2384,0.2463,0.2533,0.2616,0.2654,0.2623,0.2719,0.2724,0.2729,0.2662,0.2714,0.2719,0.2724,0.2657,0.2657,0.2656,0,0,0.218,0.22,0.2204,0.222,0.2245,0.2265,0.2271,0.2299,0.2312,0.2368,0.2425,0.2496,0.2605,0.2648,0.2693,0.2772,0.2777,0.284,0.2788,0.2844,0.2847,0.2851,0.2807,0.2806,0.2824,0.2824,0.2824,0,0.2168,0.2185,0.2207,0.2217,0.223,0.2266,0.2272,0.2297,0.2343,0.236,0.2383,0.2551,0.2605,0.2703,0.2733,0.2785,0.2796,0.2751,0.285,0.2853,0.2855,0.281,0.2808,0.2826,0.2826,0.2826,0.2826,0,0.2166,0.2178,0.2184,0.2217,0.2229,0.2247,0.2278,0.2307,0.2348,0.2375,0.2475,0.2555,0.2633,0.2706,0.274,0.2816,0.2811,0.2873,0.2815,0.2863,0.2813,0.2811,0.283,0.2829,0.2828,0.2828,0,0,0.2138,0.2176,0.2176,0.2187,0.2232,0.2241,0.2278,0.2315,0.2342,0.2406,0.2442,0.2578,0.261,0.2656,0.2739,0.2772,0.2804,0.2822,0.2824,0.2754,0.2873,0.2877,0.2874,0.2921,0.2921,0.2921,0.2825,0,0.2131,0.2146,0.217,0.2187,0.2195,0.224,0.2272,0.2309,0.236,0.2405,0.2476,0.2562,0.26,0.2668,0.2703,0.2809,0.2802,0.2818,0.2853,0.285,0.2833,0.2874,0.2688,0.259,0.2822,0.2821,0.2821,0,0.2113,0.2129,0.2139,0.2175,0.2182,0.2206,0.2261,0.2295,0.236,0.24,0.2461,0.2526,0.258,0.2626,0.2708,0.2737,0.2768,0.282,0.2821,0.279,0.2851,0.2586,0.2576,0.2816,0.2816,0.2816,0.2817,0,0.2073,0.2103,0.2115,0.2126,0.2176,0.2194,0.2233,0.2294,0.2332,0.2395,0.2442,0.2502,0.2573,0.262,0.2712,0.2725,0.2801,0.2833,0.283,0.2827,0.2645,0.2627,0.2843,0.2843,0.2843,0.2843,0.2843,0,0.2054,0.2055,0.21,0.2104,0.2126,0.2167,0.2207,0.2254,0.2328,0.2368,0.2436,0.2493,0.2595,0.2663,0.2693,0.2752,0.2778,0.2782,0.2815,0.2656,0.2642,0.2824,0.2823,0.2839,0.284,0.2841,0.2842,0,0.1996,0.2032,0.2039,0.2087,0.2106,0.2119,0.2197,0.2224,0.2311,0.2367,0.2393,0.2506,0.2586,0.266,0.2751,0.2753,0.2795,0.2807,0.2567,0.2575,0.2755,0.2757,0.2723,0.2722,0.2722,0.2722,0.2722,0,0.1966,0.1967,0.2011,0.202,0.2043,0.2081,0.2107,0.2199,0.2234,0.2371,0.239,0.2509,0.2569,0.2682,0.2717,0.2726,0.2795,0.2554,0.2534,0.2712,0.2748,0.2751,0.2754,0.2278,0.2274,0.2271,0.2268,0,0.1904,0.1926,0.1936,0.1959,0.1982,0.2005,0.2056,0.2086,0.219,0.2256,0.2347,0.2417,0.2544,0.2512,0.2578,0.256,0.2534,0.2492,0.276,0.2378,0.2298,0.2333,0.2348,0.224,0.2243,0.2245,0.2247,0.2248,0.1856,0.1849,0.1874,0.1885,0.1907,0.1917,0.1913,0.1973,0.2025,0.2098,0.2221,0.2267,0.2334,0.2348,0.2301,0.2269,0.243,0.2312,0.2318,0.2329,0.2336,0.2266,0.2195,0.2197,0.2199,0.2201,0.2203,0,0.179,0.1794,0.1799,0.1805,0.1788,0.1837,0.1861,0.1839,0.1853,0.196,0.2027,0.192,0.1939,0.2,0.1929,0.1954,0.19,0.1859,0.1765,0.1797,0.1824,0.1802,0.152,0.1517,0.1515,0.1512,0,0,0.1758,0.1732,0.1731,0.1682,0.1687,0.1642,0.1636,0.1622,0.1669,0.167,0.1695,0.1857,0.1965,0.1709,0.1696,0.1597,0.1673,0.1535,0.2093,0.2016,0.204,0.2109,0.2116,0,0,0,0,0]},{"header":{"parameterUnit":"m.s-1","parameterCategory":2,"la1":30.2991,"la2":30.254,"lo1":-89.0895,"lo2":-89.0444,"dy":0.0017,"dx":0.0017,"nx":28,"ny":28,"refTime":"2023-08-20T21:00:00:Z","depth":"2","parameterNumber":3,"parameterNumberName":"V-component_of_CURRENTS"},"data":[0,0,0,0,0,0,0,0,0,0,0,0,0,0,0,0,0,0,0,0,0,0,0,0,0,0,0,0,0,0,0,0,0,0,0,0,0,0,0,0,0,0,0,0,0,0,0,0,0,0,0,0,0,0,0,0,0,0,0.0228,0.0228,0,0.02,0.02,0.0199,0.0206,0.0206,0.0206,0.0207,0.0136,0.0133,0.0131,0,0,0,0,0,0,0,0,0,0,0,0,0,0.0262,0.0262,0.0228,0.0228,0.0227,0.02,0.02,0.0199,0.0206,0.0206,0.0207,0.0207,0.0136,0.0134,0.0131,0,0,0,0,0,0,0,0,0,0,0,0,0,0.0243,0.0262,0.0228,0.0227,0.0226,0.02,0.02,0.0199,0.0205,0.0206,0.0207,0.0207,0.0137,0.0134,0.0131,0.0096,0,0,0.012,0.0118,0,0,0,0,0,0,0,0,0.0244,0.0242,0.0227,0.0227,0.0226,0.0206,0.0186,0.0162,0.0205,0.0214,0.0207,0.0208,0.0154,0.0149,0.0144,0.0092,0.0089,0.012,0.0118,0.0116,0.0115,0,0,0,0,0,0,0,0.0246,0.0243,0.0218,0.0227,0.0226,0.0218,0.0217,0.0181,0.0181,0.0213,0.0214,0.0209,0.0154,0.0148,0.0143,0.0088,0.012,0.0117,0.0114,0.0113,0.0012,0.0012,0,0,0,0,0,0,0.0248,0.0244,0.0219,0.0217,0.0236,0.0217,0.0215,0.0213,0.0182,0.0178,0.0208,0.0209,0.0153,0.0147,0.014,0.0105,0.0116,0.0113,0.0111,0.0013,0.0012,0.0012,0,0,0,0,0,0,0.0249,0.0246,0.022,0.0229,0.0225,0.0216,0.0213,0.0212,0.0208,0.0178,0.0174,0.0207,0.0154,0.0145,0.0121,0.0102,0.0111,0.0108,0.0014,0.0013,0.0012,0.0028,0,0,0,0,0,0,0.025,0.0246,0.0248,0.0229,0.0225,0.0212,0.0212,0.0211,0.0204,0.0205,0.0175,0.0169,0.0154,0.0126,0.0117,0.0097,0.0105,0.0014,0.0013,0.0012,0.0028,0.0028,0.0027,0,0,0,0,0,0.0251,0.0257,0.0249,0.0246,0.0227,0.0212,0.0209,0.0205,0.0203,0.0204,0.0188,0.017,0.0112,0.0123,0.0113,0.0091,0.0015,0.0013,0.0012,0.0028,0.0028,0.0028,0,0,0,0,0,0,0.0278,0.0257,0.0248,0.0249,0.0232,0.0213,0.0215,0.0204,0.0191,0.0193,0.0165,0.0158,0.012,0.0107,0.012,0.0059,0.0058,0.0055,0.0074,0.0073,0.0073,0.0097,0.0102,0,0,0,0,0,0.0281,0.0279,0.0255,0.0255,0.0248,0.0228,0.0221,0.0215,0.0199,0.0195,0.0171,0.0143,0.0104,0.0094,0.0058,0.0033,0.0022,0.0011,0.001,0.001,0.0022,-0.0012,-0.0014,0.0007,0.0007,0.0007,0,0,0.0291,0.0279,0.0278,0.026,0.0248,0.0243,0.0227,0.0219,0.0218,0.0186,0.0176,0.0132,0.0094,0.0062,0.0044,0.0054,-0.0001,0.0008,0.0009,0.0021,-0.0014,-0.0015,-0.0017,0.0006,0.0006,0.0007,0,0,0.0311,0.0298,0.0303,0.0291,0.0272,0.0257,0.0254,0.023,0.0225,0.0201,0.0172,0.0135,0.0081,0.006,0.0039,0.0017,-0.0013,-0.0014,0.0015,-0.0018,-0.002,-0.0022,-0.0033,-0.0035,-0.0,-0.0,-0.0,0,0.0325,0.0326,0.0302,0.0304,0.0299,0.0265,0.0269,0.0255,0.0227,0.0219,0.0203,0.0119,0.0085,0.005,0.0039,0.0017,-0.0006,0.0021,-0.0018,-0.0019,-0.0021,-0.0033,-0.0036,0.0,0.0,0.0,0.0,0,0.0346,0.0348,0.035,0.0339,0.033,0.0328,0.0302,0.029,0.0265,0.0244,0.0196,0.0147,0.0108,0.0073,0.0047,0.0009,-0.0005,-0.0025,-0.0012,-0.0022,-0.0034,-0.0037,0.0001,0.0001,0.0001,0.0001,0,0,0.0374,0.0368,0.0368,0.0373,0.035,0.0345,0.0339,0.032,0.0319,0.0269,0.0259,0.018,0.0148,0.0123,0.0076,0.0043,0.0005,0.0003,0.0001,0.0001,-0.0065,-0.0087,-0.0093,-0.0035,-0.0036,-0.0037,-0.0066,0,0.0398,0.0415,0.0401,0.0414,0.042,0.0391,0.039,0.0368,0.0338,0.0319,0.0259,0.0224,0.017,0.0145,0.01,0.0023,-0.0006,0.0015,-0.0062,-0.0064,-0.0076,-0.0099,-0.0071,-0.0097,-0.0069,-0.007,-0.007,0,0.0424,0.0432,0.0454,0.0456,0.0456,0.0455,0.0445,0.0441,0.0405,0.038,0.0336,0.0288,0.0234,0.0185,0.0077,0.0085,0.0017,-0.0042,-0.0045,-0.0071,-0.0093,-0.0085,-0.0104,-0.0076,-0.0076,-0.0075,-0.0075,0,0.0459,0.0469,0.049,0.049,0.0486,0.0489,0.0483,0.0459,0.0468,0.0425,0.042,0.0341,0.0313,0.0209,0.009,0.0078,-0.0035,-0.0056,-0.0134,-0.0135,-0.0126,-0.0125,-0.0129,-0.0129,-0.0129,-0.0129,-0.0129,0,0.0492,0.0507,0.0508,0.052,0.0545,0.0527,0.0548,0.0529,0.052,0.0536,0.0461,0.0456,0.031,0.023,0.0113,-0.0019,-0.001,-0.0129,-0.015,-0.012,-0.0119,-0.0113,-0.0111,-0.013,-0.013,-0.0129,-0.0129,0,0.0525,0.0528,0.0552,0.0557,0.0564,0.058,0.06,0.0614,0.0599,0.0618,0.0613,0.0545,0.0442,0.0296,0.0135,0.0026,-0.0105,-0.0154,-0.01,-0.0115,-0.0183,-0.018,-0.023,-0.0231,-0.0232,-0.0233,-0.0234,0,0.0542,0.0561,0.0585,0.0603,0.0606,0.0631,0.0653,0.0652,0.0679,0.0677,0.0695,0.0614,0.0568,0.0331,0.012,-0.0075,-0.0108,-0.0183,-0.0202,-0.0181,-0.0197,-0.0192,-0.0187,-0.0176,-0.0176,-0.0177,-0.0177,0,0.0572,0.058,0.06,0.0644,0.067,0.0711,0.0746,0.0785,0.0794,0.0819,0.0839,0.0808,0.0589,0.0393,0.0112,-0.002,-0.0152,-0.0192,-0.0189,-0.0161,-0.0135,-0.0148,-0.0145,-0.0178,-0.0178,-0.0178,-0.0178,-0.0178,0.0591,0.0608,0.0639,0.068,0.0722,0.0784,0.0829,0.088,0.0946,0.0986,0.0953,0.0912,0.0681,0.0334,0.0088,-0.0165,-0.0152,-0.0236,-0.0233,-0.0231,-0.0226,-0.0204,-0.0257,-0.0257,-0.0258,-0.0258,-0.0258,0,0.0608,0.0631,0.0671,0.0723,0.0778,0.0801,0.0887,0.094,0.103,0.1062,0.1079,0.0875,0.0649,0.0383,0.0008,-0.0218,-0.0227,-0.0286,-0.0245,-0.0242,-0.024,-0.0234,-0.0268,-0.0269,-0.027,-0.027,0,0,0.0614,0.0652,0.0672,0.0761,0.0808,0.0895,0.0952,0.1037,0.1091,0.113,0.1111,0.1054,0.0737,0.0466,0.0157,-0.0058,-0.0097,-0.0098,-0.0063,0.0024,0.0029,-0.0183,-0.0167,0,0,0,0,0]}],[{"header":{"parameterUnit":"m.s-1","parameterCategory":2,"la1":30.2991,"la2":30.254,"lo1":-89.0895,"lo2":-89.0444,"dy":0.0017,"dx":0.0017,"nx":28,"ny":28,"refTime":"2023-08-20T21:00:00:Z","depth":"4","parameterNumber":2,"parameterNumberName":"U-component_of_CURRENTS"},"data":[0,0,0,0,0,0,0,0,0,0,0,0,0,0,0,0,0,0,0,0,0,0,0,0,0,0,0,0,0,0,0,0,0,0,0,0,0,0,0,0,0,0,0,0,0,0,0,0,0,0,0,0,0,0,0,0,0,0,0.1265,0.1266,0,0.1337,0.1337,0.1338,0.1363,0.1364,0.1364,0.1364,0.1419,0.142,0.1421,0,0,0,0,0,0,0,0,0,0,0,0,0,0.118,0.1181,0.1265,0.1266,0.1268,0.1337,0.1337,0.1338,0.1363,0.1364,0.1364,0.1364,0.1418,0.142,0.1421,0,0,0,0,0,0,0,0,0,0,0,0,0,0.1225,0.1181,0.1265,0.1294,0.1298,0.1337,0.1337,0.1338,0.1363,0.1364,0.1364,0.1365,0.1418,0.142,0.1421,0.1421,0,0,0.1426,0.1427,0,0,0,0,0,0,0,0,0.1222,0.1227,0.1288,0.1292,0.1297,0.1348,0.1328,0.1367,0.1363,0.1331,0.1364,0.1365,0.1397,0.1401,0.1404,0.1423,0.1426,0.1427,0.1428,0.1428,0.1429,0,0,0,0,0,0,0,0.1219,0.1224,0.1286,0.129,0.1295,0.1315,0.132,0.1335,0.1355,0.1334,0.1338,0.1356,0.1399,0.1402,0.1405,0.1426,0.1426,0.1428,0.1429,0.143,0.1529,0.153,0,0,0,0,0,0,0.1221,0.1221,0.1284,0.1289,0.1267,0.1316,0.1322,0.1325,0.1355,0.1362,0.1356,0.1357,0.1399,0.1403,0.1407,0.1482,0.1428,0.143,0.1431,0.1527,0.1529,0.1531,0,0,0,0,0,0,0.1219,0.1226,0.1282,0.1263,0.1273,0.1318,0.132,0.1326,0.1357,0.1373,0.1379,0.1384,0.1399,0.1405,0.1447,0.1482,0.1431,0.1432,0.1525,0.1528,0.153,0.1585,0,0,0,0,0,0,0.1216,0.1224,0.1237,0.1263,0.1274,0.1317,0.1321,0.1328,0.1369,0.1372,0.1398,0.1402,0.14,0.1444,0.1448,0.1483,0.1433,0.1523,0.1526,0.1529,0.1581,0.1589,0.1596,0,0,0,0,0,0.1212,0.1227,0.1236,0.1245,0.1286,0.1319,0.1326,0.1355,0.137,0.1383,0.141,0.1403,0.1467,0.1447,0.1451,0.1487,0.1521,0.1525,0.1529,0.1578,0.1587,0.1596,0,0,0,0,0,0,0.1203,0.1232,0.1243,0.1267,0.1298,0.1326,0.1353,0.1371,0.1401,0.1414,0.1421,0.1427,0.1478,0.1476,0.1454,0.1526,0.1494,0.1499,0.153,0.1539,0.1546,0.1532,0.1435,0,0,0,0,0,0.1206,0.1222,0.1253,0.1277,0.1295,0.1327,0.1351,0.1371,0.1401,0.1416,0.1437,0.1464,0.1492,0.151,0.1529,0.1567,0.1563,0.1594,0.1601,0.1607,0.16,0.1632,0.1642,0.1543,0.1543,0.1543,0,0,0.1211,0.1232,0.1242,0.1277,0.1304,0.1333,0.1342,0.1386,0.1417,0.1417,0.147,0.1492,0.1508,0.1552,0.1575,0.1558,0.1637,0.1612,0.1617,0.1606,0.1637,0.1647,0.1655,0.1545,0.1545,0.1544,0,0,0.1225,0.1247,0.1263,0.1291,0.1341,0.1359,0.1378,0.142,0.1446,0.1491,0.151,0.1548,0.1586,0.1607,0.1621,0.1679,0.1675,0.1698,0.1725,0.1757,0.1765,0.1772,0.1788,0.1795,0.1701,0.1702,0.1702,0,0.1234,0.1256,0.1277,0.1305,0.1338,0.1373,0.1405,0.1434,0.1487,0.1516,0.1515,0.1592,0.1606,0.1665,0.1687,0.1695,0.171,0.1689,0.1766,0.1772,0.1778,0.1793,0.1801,0.1705,0.1704,0.1704,0.1704,0,0.1253,0.1284,0.1303,0.1343,0.1376,0.1415,0.1458,0.1498,0.1533,0.1562,0.163,0.165,0.1695,0.1714,0.1716,0.1782,0.1778,0.1771,0.174,0.1791,0.1804,0.1811,0.1709,0.1708,0.1707,0.1706,0,0,0.1241,0.1301,0.1313,0.1338,0.1404,0.143,0.149,0.1548,0.1588,0.1637,0.1687,0.174,0.176,0.1776,0.1798,0.1822,0.1881,0.1821,0.1821,0.183,0.1953,0.1841,0.1838,0.1899,0.19,0.1901,0.1946,0,0.1256,0.1303,0.1337,0.1394,0.1423,0.1478,0.1524,0.1584,0.1631,0.1685,0.1728,0.178,0.1784,0.1815,0.1845,0.1874,0.1902,0.1868,0.1906,0.1906,0.1796,0.1843,0.1906,0.1952,0.1953,0.1954,0.1955,0,0.1263,0.1297,0.1351,0.1416,0.1436,0.1479,0.1562,0.1609,0.1692,0.1729,0.1793,0.1825,0.1891,0.1872,0.1946,0.1932,0.1948,0.1956,0.1958,0.1834,0.1807,0.1888,0.1968,0.1967,0.1966,0.1965,0.1964,0,0.1234,0.1307,0.1349,0.1376,0.1453,0.1498,0.1548,0.1631,0.1682,0.1769,0.1809,0.1881,0.1929,0.1962,0.1996,0.1984,0.2055,0.2037,0.1949,0.1942,0.2003,0.1995,0.2079,0.2079,0.2079,0.2079,0.2079,0,0.1222,0.1262,0.1344,0.1367,0.1428,0.149,0.156,0.1619,0.1709,0.1759,0.1838,0.1878,0.1957,0.2008,0.2018,0.2007,0.2082,0.1953,0.1947,0.2027,0.2021,0.2009,0.2,0.2081,0.208,0.208,0.208,0,0.1179,0.1233,0.1288,0.138,0.1415,0.1462,0.1573,0.1611,0.1707,0.1775,0.181,0.191,0.1962,0.2023,0.2076,0.2028,0.2027,0.2007,0.2093,0.2091,0.1884,0.1878,0.1897,0.1893,0.189,0.1888,0.1885,0,0.1158,0.1182,0.129,0.1326,0.1375,0.1454,0.1499,0.1604,0.1642,0.177,0.1787,0.1888,0.1936,0.1924,0.199,0.2005,0.1987,0.1971,0.1912,0.1874,0.1867,0.1865,0.1863,0.1881,0.188,0.1879,0.1878,0,0.1118,0.1168,0.1212,0.1288,0.1347,0.1397,0.147,0.1491,0.1593,0.1698,0.1723,0.1753,0.1811,0.1844,0.1881,0.1885,0.1966,0.1939,0.1944,0.1889,0.1855,0.185,0.1852,0.1868,0.1869,0.187,0.1871,0,0.1095,0.1115,0.1179,0.1234,0.1299,0.1313,0.1363,0.1399,0.1453,0.1585,0.1587,0.1688,0.1784,0.1783,0.1811,0.1814,0.178,0.1713,0.1729,0.1742,0.1671,0.1603,0.1533,0,0,0,0,0,0.1065,0.1072,0.1118,0.1161,0.1214,0.1251,0.1325,0.1371,0.1467,0.1446,0.1514,0.1554,0.1592,0.1648,0.1621,0.1748,0.1792,0.1707,0.1724,0.181,0.1822,0.1753,0,0,0,0,0,0,0.1044,0.108,0.109,0.1082,0.1093,0.1135,0.1176,0.1243,0.1236,0.1345,0.1377,0.1464,0.153,0.1596,0.1593,0.1611,0.1589,0.1778,0.1774,0.1803,0.1814,0.1824,0.1757,0,0,0,0,0]},{"header":{"parameterUnit":"m.s-1","parameterCategory":2,"la1":30.2991,"la2":30.254,"lo1":-89.0895,"lo2":-89.0444,"dy":0.0017,"dx":0.0017,"nx":28,"ny":28,"refTime":"2023-08-20T21:00:00:Z","depth":"4","parameterNumber":3,"parameterNumberName":"V-component_of_CURRENTS"},"data":[0,0,0,0,0,0,0,0,0,0,0,0,0,0,0,0,0,0,0,0,0,0,0,0,0,0,0,0,0,0,0,0,0,0,0,0,0,0,0,0,0,0,0,0,0,0,0,0,0,0,0,0,0,0,0,0,0,0,0.0287,0.0287,0,0.0281,0.0281,0.0282,0.0297,0.0297,0.0297,0.0298,0.0295,0.0295,0.0295,0,0,0,0,0,0,0,0,0,0,0,0,0,0.0289,0.0289,0.0287,0.0287,0.0287,0.0281,0.0281,0.0282,0.0297,0.0297,0.0297,0.0298,0.0295,0.0295,0.0295,0,0,0,0,0,0,0,0,0,0,0,0,0,0.0288,0.0289,0.0287,0.0292,0.0293,0.0281,0.0281,0.0282,0.0296,0.0297,0.0297,0.0298,0.0296,0.0295,0.0295,0.0281,0,0,0.0293,0.0293,0,0,0,0,0,0,0,0,0.0288,0.0288,0.0292,0.0292,0.0292,0.0289,0.0281,0.0281,0.0296,0.0297,0.0298,0.0298,0.0292,0.0292,0.0292,0.0281,0.0281,0.0293,0.0293,0.0292,0.0292,0,0,0,0,0,0,0,0.0288,0.0288,0.0287,0.0292,0.0292,0.0287,0.0288,0.0281,0.0293,0.0297,0.0297,0.0294,0.0293,0.0292,0.0292,0.0281,0.0293,0.0292,0.0292,0.0292,0.0298,0.0298,0,0,0,0,0,0,0.0286,0.0288,0.0287,0.0286,0.029,0.0287,0.0288,0.0291,0.0293,0.0293,0.0294,0.0295,0.0293,0.0293,0.0292,0.0306,0.0292,0.0292,0.0292,0.0298,0.0298,0.0299,0,0,0,0,0,0,0.0286,0.0286,0.0287,0.0285,0.0285,0.0286,0.0289,0.029,0.0294,0.029,0.0291,0.0297,0.0293,0.0293,0.0302,0.0305,0.0292,0.0291,0.0297,0.0298,0.0298,0.0316,0,0,0,0,0,0,0.0287,0.0287,0.0292,0.0286,0.0285,0.0284,0.0289,0.029,0.029,0.0292,0.0293,0.0294,0.0294,0.0303,0.0302,0.0304,0.0291,0.0296,0.0297,0.0298,0.0314,0.0317,0.0319,0,0,0,0,0,0.0287,0.0293,0.0293,0.0292,0.0291,0.0284,0.0283,0.0286,0.029,0.0292,0.0303,0.0294,0.0308,0.0303,0.0302,0.0304,0.0296,0.0297,0.0298,0.0313,0.0316,0.0319,0,0,0,0,0,0,0.0297,0.0294,0.0294,0.03,0.0292,0.0286,0.0288,0.0286,0.0295,0.0301,0.03,0.0301,0.0312,0.0305,0.03,0.0309,0.03,0.0301,0.0312,0.0315,0.0317,0.0299,0.029,0,0,0,0,0,0.03,0.0307,0.0297,0.0302,0.0298,0.0292,0.029,0.0291,0.0294,0.0298,0.03,0.0305,0.0313,0.0313,0.0318,0.0317,0.0287,0.0318,0.032,0.0322,0.0307,0.0281,0.0278,0.0302,0.0302,0.0302,0,0,0.0305,0.0305,0.0308,0.0304,0.03,0.0298,0.0293,0.0291,0.0295,0.0295,0.0307,0.0313,0.0317,0.0326,0.0329,0.0321,0.0298,0.0324,0.0325,0.0309,0.0281,0.0279,0.0276,0.0303,0.0303,0.0303,0,0,0.0315,0.0316,0.0322,0.0317,0.031,0.0306,0.0305,0.0299,0.0303,0.0311,0.0318,0.0324,0.0332,0.0333,0.0335,0.0348,0.0314,0.0354,0.0345,0.032,0.0317,0.0314,0.0261,0.0253,0.0351,0.0351,0.0351,0,0.0321,0.0328,0.0321,0.0322,0.0321,0.0309,0.0311,0.031,0.0311,0.0311,0.0319,0.0327,0.0333,0.0334,0.0346,0.0351,0.0322,0.0335,0.0321,0.0318,0.0315,0.0261,0.0252,0.0352,0.0352,0.0352,0.0352,0,0.033,0.0337,0.0338,0.0339,0.0335,0.0335,0.0327,0.0327,0.033,0.0325,0.0329,0.0335,0.0335,0.0343,0.035,0.0335,0.0316,0.033,0.0311,0.0313,0.0256,0.0247,0.0353,0.0353,0.0353,0.0352,0,0,0.0342,0.0345,0.0347,0.0352,0.0345,0.0343,0.0344,0.0338,0.0338,0.0335,0.033,0.0342,0.0333,0.0334,0.0338,0.0317,0.0275,0.0314,0.0312,0.0253,0.0194,0.019,0.0178,0.0289,0.0288,0.0287,0.0158,0,0.0352,0.0363,0.036,0.037,0.0373,0.0363,0.0367,0.0359,0.0354,0.0346,0.0332,0.0337,0.0332,0.034,0.0313,0.0293,0.0253,0.0306,0.0206,0.0202,0.0193,0.0169,0.0283,0.0151,0.0149,0.0147,0.0146,0,0.0362,0.0369,0.0384,0.0389,0.0389,0.0393,0.0391,0.0393,0.0372,0.0369,0.0347,0.0336,0.0303,0.031,0.0229,0.0264,0.0221,0.0196,0.0191,0.0171,0.0181,0.0152,0.0129,0.013,0.0131,0.0133,0.0134,0,0.0375,0.0385,0.0401,0.0403,0.0407,0.0411,0.0412,0.0399,0.041,0.0379,0.0383,0.0326,0.0318,0.0249,0.0192,0.0209,0.0097,0.0115,0.0056,0.0054,0.0088,0.0093,0.0042,0.0042,0.0042,0.0043,0.0043,0,0.0386,0.0398,0.0411,0.0419,0.0438,0.043,0.0447,0.0438,0.0434,0.0446,0.0397,0.0394,0.0309,0.0242,0.0173,0.0076,0.0073,0.0032,0.002,0.0098,0.0105,0.008,0.0086,0.0038,0.0039,0.004,0.0041,0,0.0396,0.0406,0.0425,0.0438,0.0448,0.046,0.0485,0.0494,0.0487,0.0499,0.0495,0.0439,0.0351,0.0246,0.0132,0.0067,-0.003,-0.0063,-0.0003,-0.0006,-0.0062,-0.0053,-0.0162,-0.0163,-0.0164,-0.0165,-0.0165,0,0.04,0.0414,0.0445,0.0464,0.0472,0.0497,0.0517,0.0523,0.054,0.0534,0.0542,0.0465,0.0413,0.0228,0.0118,-0.0061,-0.0064,-0.014,-0.0084,-0.0082,-0.0083,-0.0073,-0.0063,-0.0167,-0.0167,-0.0168,-0.0168,0,0.0406,0.0423,0.0441,0.0485,0.0513,0.0548,0.0578,0.0598,0.0608,0.0605,0.0582,0.0487,0.0381,0.0236,0.0094,-0.0021,-0.0107,-0.0151,-0.0149,-0.0097,-0.009,-0.0088,-0.0077,-0.0171,-0.0171,-0.0171,-0.017,0,0.0413,0.0426,0.0461,0.0496,0.0542,0.0585,0.0599,0.062,0.0639,0.0633,0.0623,0.051,0.0444,0.0256,0.0129,0.0004,-0.0017,-0.0053,-0.0057,-0.0054,0.0028,0.0055,-0.0009,0,0,0,0,0,0.0414,0.0431,0.0467,0.0508,0.0559,0.0589,0.0636,0.0648,0.0663,0.0655,0.0643,0.0547,0.0362,0.0282,0.0156,0.0104,-0.0049,-0.005,-0.0094,-0.0191,-0.0187,-0.0108,0,0,0,0,0,0,0.0412,0.0446,0.0463,0.0521,0.0555,0.0612,0.0646,0.0656,0.0654,0.0651,0.0558,0.0512,0.0334,0.0438,0.0154,0.0115,0.0068,-0.0135,-0.0138,-0.0194,-0.019,-0.0187,-0.0104,0,0,0,0,0]}]]